This is the latest recevied weather packets stored in our database for station/object SP8MDH-L. If no packets are shown the sender has not sent any weather packets the latest 10 day(s).
| Time | Temp. | Humidity | Pressure | Rain* | Wind** | Luminosity | Snow |
|---|---|---|---|---|---|---|---|
| 1788253267 | 28.89° C | 34% | 1016.3 hPa | - | - | - | - |
| 1788251767 | 28.89° C | 34% | 1016.3 hPa | - | - | - | - |
| 1788250267 | 28.89° C | 34% | 1016.2 hPa | - | - | - | - |
| 1788248767 | 28.33° C | 33% | 1016.3 hPa | - | - | - | - |
| 1788247267 | 28.33° C | 34% | 1016.2 hPa | - | - | - | - |
| 1788245767 | 28.33° C | 34% | 1016.2 hPa | - | - | - | - |
| 1788244266 | 28.33° C | 34% | 1016.1 hPa | - | - | - | - |
| 1788242766 | 27.78° C | 35% | 1016 hPa | - | - | - | - |
| 1788241266 | 27.78° C | 35% | 1015.9 hPa | - | - | - | - |
| 1788239766 | 28.33° C | 34% | 1015.6 hPa | - | - | - | - |
| 1788238266 | 28.33° C | 34% | 1015.5 hPa | - | - | - | - |
| 1788236766 | 28.89° C | 33% | 1015.2 hPa | - | - | - | - |
| 1788212763 | 30° C | 32% | 1015.3 hPa | - | - | - | - |
| 1788211263 | 30° C | 33% | 1015.5 hPa | - | - | - | - |
| 1788209763 | 30° C | 33% | 1015.6 hPa | - | - | - | - |
| 1788208263 | 30° C | 34% | 1015.6 hPa | - | - | - | - |
| 1788206762 | 30° C | 34% | 1015.9 hPa | - | - | - | - |
| 1788205262 | 30° C | 34% | 1015.9 hPa | - | - | - | - |
| 1788203762 | 30° C | 34% | 1016.2 hPa | - | - | - | - |
| 1788200762 | 30.56° C | 33% | 1016.7 hPa | - | - | - | - |
| 1788199262 | 30.56° C | 32% | 1015.5 hPa | - | - | - | - |
| 1788197761 | 31.11° C | 32% | 1015.6 hPa | - | - | - | - |
| 1788196261 | 31.11° C | 32% | 1014.8 hPa | - | - | - | - |
| 1788194761 | 31.11° C | 32% | 1015.6 hPa | - | - | - | - |
| 1788193261 | 30.56° C | 33% | 1016.1 hPa | - | - | - | - |
* Rain since midnight (hover to see other rain measurements)
** Current wind speed in m/s (hover to see current wind gust speed)